Location: Huntsville
(34.7300°N, 86.5860°W)
Time: 13:13:54
(UTC-05:00)

ISS - Visible Passes

Search period start: 01 October 2023 00:00
Search period end: 11 October 2023 00:00
Orbit: 414 x 421 km, 51.6° (Epoch: 01 October)

Date Brightness Start Highest point End Pass type
(mag) Time Alt. Az. Time Alt. Az. Time Alt. Az.
01 Oct -3.0 20:06:52 10° NW 20:09:28 44° N 20:09:28 44° N visible
02 Oct -2.7 19:18:57 10° NNW 19:21:58 30° NE 19:23:34 20° E visible
02 Oct -0.4 20:55:59 10° WNW 20:56:31 13° W 20:56:31 13° W visible
03 Oct -2.7 20:07:21 10° WNW 20:10:30 40° SW 20:10:42 39° SW visible
04 Oct -3.8 19:18:57 10° NW 19:22:18 82° SW 19:25:00 15° SE visible
05 Oct -0.8 20:08:59 10° WSW 20:10:20 12° SW 20:11:42 10° SSW visible
06 Oct -1.4 19:19:25 10° WNW 19:22:06 22° SW 19:24:46 10° S visible
